DELTA 1 DEB, 7034

Orbit data source: Space-Track

DELTA 1 DEB, 7034 is space debris in SSO originally from a launch on Tue, 06 Nov 1973 UTC launched from the Air Force Western Test Range (AFWTR). Debris objects in space refer to the collection of defunct objects orbiting the Earth. Examples of debris include non-operational satellites, rocket bodies, and fragments generated from explosions, collisions, or faulty payload assembly.

Loading next visibility...
Identifier
7034, 1973-086AA
Orbit
SSO
Country
Flag of USUS
Related business
Manufacturer
Unknown
Mission
Spacecraft
Bus & Motor
Unknown
Mass
Unknown
Launch date (UTC)
1973-11-06 (53 years ago)
Launch vehicle
Unknown
Launch site
Air Force Western Test Range (AFWTR)
Object type
Payload
Rocket body
Debris
Shape & HBR
Unknown shape, 0.1 m
Radar Cross Section
Small (<0.1 m²)

Expand to show TLE details & history
Last TLE update: 4 hours ago

TLE from 4 hours ago
0 DELTA 1 DEB
1  7034U 73086AA  26132.86395858 -.00000017  00000-0  20153-3 0  9997
2  7034 102.1229 114.4091 0017120  75.1891 355.7243 12.43849862381531
Epoch: 2026-05-12T20:44Z
TLE epoch observation values (Epoch: 2026-05-12T20:44:06.021Z)
Latitude
67.57868°
Longitude
-98.44922°
Altitude
1,488.401 km
Speed
7.132 km/s
True Right ascension
05h 32m 49s
True Declination
67° 28' 06"
Sunlit
Object was in daylight at epoch
Visualization orbit readout
Latitude
Unknown
Longitude
Unknown
Altitude
Unknown
Speed
Unknown
Apparent Right ascension
Unknown
Apparent Declination
Unknown
Sunlit
N/A
Visualization observer readout
Local Sidereal Time
08:42:06
Azimuth
Unknown
Elevation
Unknown
Doppler factor
Unknown
Orbital elements
Apogee altitude
1,501.369 km
Perigee altitude
1,474.436 km
Semi-major axis
7,866.039 km
Eccentricity
0.00171
Inclination
102.1229°
RAAN
114.4091°
Arg. of periapsis
75.1891°
True anomaly
355.70964°
Mean anomaly
355.7243°
Eccentric anomaly
355.71697°
Mean motion
3.11106 °/min
Orbital period
115.72 mins
BSTAR
0.00020153
Loading maneuver chart data...
Computing Atmospheric mass density...
Loading historical data...
Loading historical data...
Loading historical data...
Loading historical data...
Loading historical data...
Loading historical data...
Loading historical data...

Documentation

Showing up to 5 results
|